contact:dominique.lefevre@mio.osupytheas.fr, maurice.libes@osupytheas.fr, didier.mallarino@osupytheas.fr
Project:EMSO http://www.emso-fr.org/EMSO-France
Depth: 2436.0 m
Title:EMSO Ligure Ouest : Data MII capteur MICROCAT
DateTime_Computer,Latitude,Longitude,Temperature,Conductivity,Pressure,DateTime_Instrument
DateTime_Computer,Latitude,Longitude,degC,S m-1,dbar,DateTime_Instrument
2022-07-08T00:01:20Z,42.805,6.029,13.3012,4.60061,2470.6,2022-7-08T02:03:06Z
2022-07-08T00:04:24Z,42.805,6.029,13.3014,4.60080,2470.614,2022-7-08T02:06:09Z
2022-07-08T00:07:27Z,42.805,6.029,13.3012,4.60060,2470.6,2022-7-08T02:09:12Z
2022-07-08T00:10:30Z,42.805,6.029,13.3015,4.60055,2470.6,2022-7-08T02:12:15Z
2022-07-08T00:13:33Z,42.805,6.029,13.3019,4.60054,2470.614,2022-7-08T02:15:18Z
2022-07-08T00:16:36Z,42.805,6.029,13.3015,4.60062,2470.614,2022-7-08T02:18:22Z
2022-07-08T00:19:39Z,42.805,6.029,13.3017,4.60065,2470.6,2022-7-08T02:21:25Z
2022-07-08T00:22:42Z,42.805,6.029,13.3023,4.60058,2470.624,2022-7-08T02:24:28Z
2022-07-08T00:25:45Z,42.805,6.029,13.3014,4.60065,2470.614,2022-7-08T02:27:31Z
2022-07-08T00:28:48Z,42.805,6.029,13.3022,4.60072,2470.624,2022-7-08T02:30:34Z
2022-07-08T00:31:52Z,42.805,6.029,13.3021,4.60063,2470.6,2022-7-08T02:33:37Z
2022-07-08T00:34:55Z,42.805,6.029,13.3015,4.60056,2470.624,2022-7-08T02:36:40Z
2022-07-08T00:37:58Z,42.805,6.029,13.3015,4.60086,2470.6,2022-7-08T02:39:43Z
2022-07-08T00:41:01Z,42.805,6.029,13.3011,4.60057,2470.624,2022-7-08T02:42:47Z
2022-07-08T00:44:04Z,42.805,6.029,13.3019,4.60059,2470.646,2022-7-08T02:45:50Z
2022-07-08T00:47:07Z,42.805,6.029,13.3013,4.60059,2470.624,2022-7-08T02:48:53Z
2022-07-08T00:50:10Z,42.805,6.029,13.3012,4.60053,2470.624,2022-7-08T02:51:56Z
2022-07-08T00:53:13Z,42.805,6.029,13.3017,4.60059,2470.624,2022-7-08T02:54:59Z
2022-07-08T00:56:17Z,42.805,6.029,13.3015,4.60058,2470.637,2022-7-08T02:58:02Z
2022-07-08T00:59:20Z,42.805,6.029,13.3014,4.60068,2470.614,2022-7-08T03:01:05Z
2022-07-08T01:02:23Z,42.805,6.029,13.3016,4.60057,2470.637,2022-7-08T03:04:08Z
2022-07-08T01:05:26Z,42.805,6.029,13.3015,4.60052,2470.646,2022-7-08T03:07:11Z
2022-07-08T01:08:29Z,42.805,6.029,13.3023,4.60059,2470.624,2022-7-08T03:10:15Z
2022-07-08T01:11:32Z,42.805,6.029,13.3012,4.60051,2470.661,2022-7-08T03:13:18Z
2022-07-08T01:14:35Z,42.805,6.029,13.3014,4.60052,2470.61,2022-7-08T03:16:21Z
2022-07-08T01:17:38Z,42.805,6.029,13.3013,4.60051,2470.6,2022-7-08T03:19:24Z
2022-07-08T01:20:41Z,42.805,6.029,13.3013,4.60054,2470.614,2022-7-08T03:22:27Z
2022-07-08T01:23:45Z,42.805,6.029,13.3009,4.60065,2470.614,2022-7-08T03:25:30Z
2022-07-08T01:26:48Z,42.805,6.029,13.3014,4.60057,2470.637,2022-7-08T03:28:33Z
2022-07-08T01:29:51Z,42.805,6.029,13.3014,4.60059,2470.614,2022-7-08T03:31:36Z
2022-07-08T01:32:54Z,42.805,6.029,13.3010,4.60055,2470.637,2022-7-08T03:34:40Z
2022-07-08T01:35:57Z,42.805,6.029,13.3017,4.60052,2470.637,2022-7-08T03:37:43Z
2022-07-08T01:39:00Z,42.805,6.029,13.3014,4.60052,2470.6,2022-7-08T03:40:46Z
2022-07-08T01:42:03Z,42.805,6.029,13.3015,4.60052,2470.624,2022-7-08T03:43:49Z
2022-07-08T01:45:06Z,42.805,6.029,13.3019,4.60051,2470.624,2022-7-08T03:46:52Z
2022-07-08T01:48:10Z,42.805,6.029,13.3018,4.60053,2470.61,2022-7-08T03:49:55Z
2022-07-08T01:51:13Z,42.805,6.029,13.3014,4.60070,2470.624,2022-7-08T03:52:58Z
2022-07-08T01:54:16Z,42.805,6.029,13.3022,4.60061,2470.614,2022-7-08T03:56:01Z
2022-07-08T01:57:19Z,42.805,6.029,13.3011,4.60054,2470.661,2022-7-08T03:59:04Z
2022-07-08T02:00:22Z,42.805,6.029,13.3015,4.60072,2470.624,2022-7-08T04:02:08Z
2022-07-08T02:03:25Z,42.805,6.029,13.3016,4.60054,2470.6,2022-7-08T04:05:11Z
2022-07-08T02:06:28Z,42.805,6.029,13.3014,4.60053,2470.614,2022-7-08T04:08:14Z
2022-07-08T02:09:31Z,42.805,6.029,13.3017,4.60079,2470.624,2022-7-08T04:11:17Z
2022-07-08T02:12:34Z,42.805,6.029,13.3014,4.60061,2470.624,2022-7-08T04:14:20Z
2022-07-08T02:15:38Z,42.805,6.029,13.3018,4.60063,2470.6,2022-7-08T04:17:23Z
2022-07-08T02:18:41Z,42.805,6.029,13.3010,4.60053,2470.577,2022-7-08T04:20:26Z
2022-07-08T02:21:44Z,42.805,6.029,13.3009,4.60056,2470.577,2022-7-08T04:23:29Z
2022-07-08T02:24:47Z,42.805,6.029,13.3015,4.60067,2470.577,2022-7-08T04:26:33Z
2022-07-08T02:27:50Z,42.805,6.029,13.3010,4.60050,2470.6,2022-7-08T04:29:36Z
2022-07-08T02:30:53Z,42.805,6.029,13.3009,4.60054,2470.624,2022-7-08T04:32:39Z
2022-07-08T02:33:56Z,42.805,6.029,13.3012,4.60052,2470.6,2022-7-08T04:35:42Z
2022-07-08T02:36:59Z,42.805,6.029,13.3014,4.60054,2470.577,2022-7-08T04:38:45Z
2022-07-08T02:40:02Z,42.805,6.029,13.3013,4.60053,2470.6,2022-7-08T04:41:48Z
2022-07-08T02:43:06Z,42.805,6.029,13.3012,4.60049,2470.6,2022-7-08T04:44:51Z
2022-07-08T02:46:09Z,42.805,6.029,13.3011,4.60055,2470.591,2022-7-08T04:47:54Z
2022-07-08T02:49:12Z,42.805,6.029,13.3015,4.60062,2470.577,2022-7-08T04:50:57Z
2022-07-08T02:52:15Z,42.805,6.029,13.3013,4.60059,2470.591,2022-7-08T04:54:01Z
2022-07-08T02:55:18Z,42.805,6.029,13.3014,4.60074,2470.577,2022-7-08T04:57:04Z
2022-07-08T02:58:21Z,42.805,6.029,13.3009,4.60053,2470.614,2022-7-08T05:00:07Z
2022-07-08T03:01:24Z,42.805,6.029,13.3014,4.60052,2470.6,2022-7-08T05:03:10Z
2022-07-08T03:04:27Z,42.805,6.029,13.3009,4.60052,2470.577,2022-7-08T05:06:13Z
2022-07-08T03:07:30Z,42.805,6.029,13.3015,4.60052,2470.577,2022-7-08T05:09:16Z
2022-07-08T03:10:34Z,42.805,6.029,13.3014,4.60054,2470.614,2022-7-08T05:12:19Z
2022-07-08T03:13:37Z,42.805,6.029,13.3015,4.60056,2470.614,2022-7-08T05:15:22Z
2022-07-08T03:16:40Z,42.805,6.029,13.3015,4.60055,2470.6,2022-7-08T05:18:25Z
2022-07-08T03:19:43Z,42.805,6.029,13.3012,4.60053,2470.6,2022-7-08T05:21:29Z
2022-07-08T03:22:46Z,42.805,6.029,13.3014,4.60049,2470.577,2022-7-08T05:24:32Z
2022-07-08T03:25:49Z,42.805,6.029,13.3010,4.60052,2470.563,2022-7-08T05:27:35Z
2022-07-08T03:28:52Z,42.805,6.029,13.3010,4.60055,2470.577,2022-7-08T05:30:38Z
2022-07-08T03:31:55Z,42.805,6.029,13.3018,4.60056,2470.614,2022-7-08T05:33:41Z
2022-07-08T03:34:59Z,42.805,6.029,13.3015,4.60056,2470.586,2022-7-08T05:36:44Z
2022-07-08T03:38:02Z,42.805,6.029,13.3010,4.60050,2470.553,2022-7-08T05:39:47Z
2022-07-08T03:41:05Z,42.805,6.029,13.3013,4.60057,2470.553,2022-7-08T05:42:50Z
2022-07-08T03:44:08Z,42.805,6.029,13.3012,4.60054,2470.591,2022-7-08T05:45:53Z
2022-07-08T03:47:11Z,42.805,6.029,13.3011,4.60052,2470.577,2022-7-08T05:48:57Z
2022-07-08T03:50:14Z,42.805,6.029,13.3012,4.60058,2470.591,2022-7-08T05:52:00Z
2022-07-08T03:53:17Z,42.805,6.029,13.3014,4.60054,2470.577,2022-7-08T05:55:03Z
2022-07-08T03:56:20Z,42.805,6.029,13.3010,4.60052,2470.591,2022-7-08T05:58:06Z
2022-07-08T03:59:23Z,42.805,6.029,13.3014,4.60053,2470.6,2022-7-08T06:01:09Z
2022-07-08T04:02:27Z,42.805,6.029,13.3010,4.60057,2470.577,2022-7-08T06:04:12Z
2022-07-08T04:05:30Z,42.805,6.029,13.3011,4.60049,2470.567,2022-7-08T06:07:15Z
2022-07-08T04:08:33Z,42.805,6.029,13.3011,4.60049,2470.553,2022-7-08T06:10:18Z
2022-07-08T04:11:36Z,42.805,6.029,13.3011,4.60049,2470.567,2022-7-08T06:13:22Z
2022-07-08T04:14:39Z,42.805,6.029,13.3013,4.60046,2470.591,2022-7-08T06:16:25Z
2022-07-08T04:17:42Z,42.805,6.029,13.3015,4.60057,2470.553,2022-7-08T06:19:28Z
2022-07-08T04:20:45Z,42.805,6.029,13.3011,4.60057,2470.553,2022-7-08T06:22:31Z
2022-07-08T04:23:48Z,42.805,6.029,13.3011,4.60049,2470.577,2022-7-08T06:25:34Z
2022-07-08T04:26:52Z,42.805,6.029,13.3009,4.60051,2470.577,2022-7-08T06:28:37Z
2022-07-08T04:29:55Z,42.805,6.029,13.3010,4.60051,2470.577,2022-7-08T06:31:40Z
2022-07-08T04:32:58Z,42.805,6.029,13.3019,4.60054,2470.553,2022-7-08T06:34:43Z
2022-07-08T04:36:01Z,42.805,6.029,13.3018,4.60054,2470.544,2022-7-08T06:37:46Z
2022-07-08T04:39:04Z,42.805,6.029,13.3012,4.60052,2470.53,2022-7-08T06:40:50Z
2022-07-08T04:42:07Z,42.805,6.029,13.3021,4.60062,2470.553,2022-7-08T06:43:53Z
2022-07-08T04:45:10Z,42.805,6.029,13.3014,4.60055,2470.544,2022-7-08T06:46:56Z
2022-07-08T04:48:13Z,42.805,6.029,13.3011,4.60057,2470.544,2022-7-08T06:49:59Z
2022-07-08T04:51:16Z,42.805,6.029,13.3015,4.60053,2470.544,2022-7-08T06:53:02Z
2022-07-08T04:54:20Z,42.805,6.029,13.3018,4.60053,2470.567,2022-7-08T06:56:05Z
2022-07-08T04:57:23Z,42.805,6.029,13.3023,4.60051,2470.53,2022-7-08T06:59:08Z
2022-07-08T05:00:26Z,42.805,6.029,13.3013,4.60049,2470.567,2022-7-08T07:02:11Z
2022-07-08T05:03:29Z,42.805,6.029,13.3017,4.60056,2470.553,2022-7-08T07:05:15Z
2022-07-08T05:06:32Z,42.805,6.029,13.3014,4.60052,2470.591,2022-7-08T07:08:18Z
2022-07-08T05:09:35Z,42.805,6.029,13.3011,4.60055,2470.52,2022-7-08T07:11:21Z
2022-07-08T05:12:38Z,42.805,6.029,13.3020,4.60059,2470.553,2022-7-08T07:14:24Z
2022-07-08T05:15:41Z,42.805,6.029,13.3010,4.60062,2470.53,2022-7-08T07:17:27Z
2022-07-08T05:18:45Z,42.805,6.029,13.3013,4.60067,2470.553,2022-7-08T07:20:30Z
2022-07-08T05:21:48Z,42.805,6.029,13.3009,4.60049,2470.544,2022-7-08T07:23:33Z
2022-07-08T05:24:51Z,42.805,6.029,13.3021,4.60066,2470.507,2022-7-08T07:26:36Z
2022-07-08T05:27:54Z,42.805,6.029,13.3018,4.60078,2470.53,2022-7-08T07:29:39Z
2022-07-08T05:30:57Z,42.805,6.029,13.3016,4.60057,2470.53,2022-7-08T07:32:43Z
2022-07-08T05:34:00Z,42.805,6.029,13.3029,4.60069,2470.567,2022-7-08T07:35:46Z
2022-07-08T05:37:03Z,42.805,6.029,13.3019,4.60084,2470.507,2022-7-08T07:38:49Z
2022-07-08T05:40:06Z,42.805,6.029,13.3020,4.60062,2470.544,2022-7-08T07:41:52Z
2022-07-08T05:43:09Z,42.805,6.029,13.3015,4.60051,2470.507,2022-7-08T07:44:55Z
2022-07-08T05:46:13Z,42.805,6.029,13.3025,4.60064,2470.497,2022-7-08T07:47:58Z
2022-07-08T05:49:16Z,42.805,6.029,13.3024,4.60080,2470.52,2022-7-08T07:51:01Z
2022-07-08T05:52:19Z,42.805,6.029,13.3013,4.60058,2470.507,2022-7-08T07:54:04Z
2022-07-08T05:55:22Z,42.805,6.029,13.3022,4.60064,2470.507,2022-7-08T07:57:08Z
2022-07-08T05:58:25Z,42.805,6.029,13.3029,4.60074,2470.507,2022-7-08T08:00:11Z
2022-07-08T06:01:28Z,42.805,6.029,13.3019,4.60081,2470.507,2022-7-08T08:03:14Z
2022-07-08T06:04:31Z,42.805,6.029,13.3024,4.60062,2470.53,2022-7-08T08:06:17Z
2022-07-08T06:07:34Z,42.805,6.029,13.3021,4.60066,2470.52,2022-7-08T08:09:20Z
2022-07-08T06:10:37Z,42.805,6.029,13.3010,4.60062,2470.53,2022-7-08T08:12:23Z
2022-07-08T06:13:41Z,42.805,6.029,13.3018,4.60069,2470.507,2022-7-08T08:15:26Z
2022-07-08T06:16:44Z,42.805,6.029,13.3014,4.60054,2470.474,2022-7-08T08:18:29Z
2022-07-08T06:19:47Z,42.805,6.029,13.3018,4.60056,2470.507,2022-7-08T08:21:32Z
2022-07-08T06:22:50Z,42.805,6.029,13.3015,4.60069,2470.52,2022-7-08T08:24:36Z
2022-07-08T06:25:53Z,42.805,6.029,13.3020,4.60068,2470.497,2022-7-08T08:27:39Z
2022-07-08T06:28:56Z,42.805,6.029,13.3019,4.60069,2470.46,2022-7-08T08:30:42Z
2022-07-08T06:31:59Z,42.805,6.029,13.3016,4.60067,2470.507,2022-7-08T08:33:45Z
2022-07-08T06:35:02Z,42.805,6.029,13.3013,4.60072,2470.46,2022-7-08T08:36:48Z
2022-07-08T06:38:06Z,42.805,6.029,13.3030,4.60080,2470.474,2022-7-08T08:39:51Z
2022-07-08T06:41:09Z,42.805,6.029,13.3024,4.60072,2470.497,2022-7-08T08:42:54Z
2022-07-08T06:44:12Z,42.805,6.029,13.3025,4.60069,2470.507,2022-7-08T08:45:57Z
2022-07-08T06:47:15Z,42.805,6.029,13.3027,4.60075,2470.483,2022-7-08T08:49:01Z
2022-07-08T06:50:18Z,42.805,6.029,13.3021,4.60079,2470.497,2022-7-08T08:52:04Z
2022-07-08T06:53:21Z,42.805,6.029,13.3024,4.60072,2470.483,2022-7-08T08:55:07Z
2022-07-08T06:56:24Z,42.805,6.029,13.3017,4.60068,2470.474,2022-7-08T08:58:10Z
2022-07-08T06:59:27Z,42.805,6.029,13.3016,4.60076,2470.483,2022-7-08T09:01:13Z
2022-07-08T07:02:30Z,42.805,6.029,13.3019,4.60088,2470.474,2022-7-08T09:04:16Z
2022-07-08T07:05:34Z,42.805,6.029,13.3021,4.60079,2470.497,2022-7-08T09:07:19Z
2022-07-08T07:08:37Z,42.805,6.029,13.3013,4.60077,2470.483,2022-7-08T09:10:22Z
2022-07-08T07:11:40Z,42.805,6.029,13.3012,4.60064,2470.497,2022-7-08T09:13:25Z
2022-07-08T07:14:43Z,42.805,6.029,13.3025,4.60057,2470.437,2022-7-08T09:16:29Z
2022-07-08T07:17:46Z,42.805,6.029,13.3022,4.60069,2470.437,2022-7-08T09:19:32Z
2022-07-08T07:20:49Z,42.805,6.029,13.3015,4.60075,2470.46,2022-7-08T09:22:35Z
2022-07-08T07:23:52Z,42.805,6.029,13.3018,4.60081,2470.437,2022-7-08T09:25:38Z
2022-07-08T07:26:55Z,42.805,6.029,13.3017,4.60079,2470.45,2022-7-08T09:28:41Z
2022-07-08T07:29:58Z,42.805,6.029,13.3031,4.60074,2470.46,2022-7-08T09:31:44Z
2022-07-08T07:33:02Z,42.805,6.029,13.3026,4.60082,2470.45,2022-7-08T09:34:47Z
2022-07-08T07:36:05Z,42.805,6.029,13.3026,4.60069,2470.437,2022-7-08T09:37:50Z
2022-07-08T07:39:08Z,42.805,6.029,13.3014,4.60057,2470.507,2022-7-08T09:40:53Z
2022-07-08T07:42:11Z,42.805,6.029,13.3029,4.60072,2470.474,2022-7-08T09:43:57Z
2022-07-08T07:45:14Z,42.805,6.029,13.3028,4.60077,2470.46,2022-7-08T09:47:00Z
2022-07-08T07:48:17Z,42.805,6.029,13.3018,4.60080,2470.46,2022-7-08T09:50:03Z
2022-07-08T07:51:20Z,42.805,6.029,13.3019,4.60082,2470.46,2022-7-08T09:53:06Z
2022-07-08T07:54:23Z,42.805,6.029,13.3021,4.60081,2470.413,2022-7-08T09:56:09Z
2022-07-08T07:57:26Z,42.805,6.029,13.3024,4.60077,2470.474,2022-7-08T09:59:12Z
2022-07-08T08:00:30Z,42.805,6.029,13.3026,4.60090,2470.437,2022-7-08T10:02:15Z
2022-07-08T08:03:33Z,42.805,6.029,13.3018,4.60088,2470.46,2022-7-08T10:05:18Z
2022-07-08T08:06:36Z,42.805,6.029,13.3009,4.60078,2470.46,2022-7-08T10:08:21Z
2022-07-08T08:09:39Z,42.805,6.029,13.3019,4.60068,2470.437,2022-7-08T10:11:25Z
2022-07-08T08:12:42Z,42.805,6.029,13.3021,4.60080,2470.437,2022-7-08T10:14:28Z
2022-07-08T08:15:45Z,42.805,6.029,13.3023,4.60085,2470.497,2022-7-08T10:17:31Z
2022-07-08T08:18:48Z,42.805,6.029,13.3024,4.60064,2470.437,2022-7-08T10:20:34Z
2022-07-08T08:21:51Z,42.805,6.029,13.3031,4.60075,2470.437,2022-7-08T10:23:37Z
2022-07-08T08:24:55Z,42.805,6.029,13.3029,4.60081,2470.427,2022-7-08T10:26:40Z
2022-07-08T08:27:58Z,42.805,6.029,13.3020,4.60076,2470.437,2022-7-08T10:29:43Z
2022-07-08T08:31:01Z,42.805,6.029,13.3024,4.60086,2470.437,2022-7-08T10:32:46Z
2022-07-08T08:34:04Z,42.805,6.029,13.3018,4.60092,2470.46,2022-7-08T10:35:50Z
2022-07-08T08:37:07Z,42.805,6.029,13.3029,4.60087,2470.437,2022-7-08T10:38:53Z
2022-07-08T08:40:10Z,42.805,6.029,13.3027,4.60084,2470.437,2022-7-08T10:41:56Z
2022-07-08T08:43:13Z,42.805,6.029,13.3024,4.60089,2470.413,2022-7-08T10:44:59Z
2022-07-08T08:46:16Z,42.805,6.029,13.3016,4.60081,2470.404,2022-7-08T10:48:02Z
2022-07-08T08:49:20Z,42.805,6.029,13.3021,4.60074,2470.427,2022-7-08T10:51:05Z
2022-07-08T08:52:23Z,42.805,6.029,13.3024,4.60082,2470.427,2022-7-08T10:54:08Z
2022-07-08T08:55:26Z,42.805,6.029,13.3025,4.60088,2470.413,2022-7-08T10:57:11Z
2022-07-08T08:58:29Z,42.805,6.029,13.3014,4.60076,2470.474,2022-7-08T11:00:15Z
2022-07-08T09:01:32Z,42.805,6.029,13.3022,4.60080,2470.437,2022-7-08T11:03:18Z
2022-07-08T09:04:35Z,42.805,6.029,13.3024,4.60082,2470.413,2022-7-08T11:06:21Z
2022-07-08T09:07:38Z,42.805,6.029,13.3014,4.60055,2470.497,2022-7-08T11:09:24Z
2022-07-08T09:10:41Z,42.805,6.029,13.3018,4.60079,2470.46,2022-7-08T11:12:27Z
2022-07-08T09:13:45Z,42.805,6.029,13.3019,4.60077,2470.437,2022-7-08T11:15:30Z
2022-07-08T09:16:48Z,42.805,6.029,13.3016,4.60069,2470.46,2022-7-08T11:18:33Z
2022-07-08T09:19:51Z,42.805,6.029,13.3015,4.60081,2470.46,2022-7-08T11:21:36Z
2022-07-08T09:22:54Z,42.805,6.029,13.3024,4.60089,2470.427,2022-7-08T11:24:40Z
2022-07-08T09:25:57Z,42.805,6.029,13.3022,4.60072,2470.404,2022-7-08T11:27:43Z
2022-07-08T09:29:00Z,42.805,6.029,13.3024,4.60065,2470.413,2022-7-08T11:30:46Z
2022-07-08T09:32:03Z,42.805,6.029,13.3012,4.60057,2470.413,2022-7-08T11:33:49Z
2022-07-08T09:35:06Z,42.805,6.029,13.3021,4.60070,2470.413,2022-7-08T11:36:52Z
2022-07-08T09:38:10Z,42.805,6.029,13.3024,4.60057,2470.45,2022-7-08T11:39:55Z
2022-07-08T09:41:13Z,42.805,6.029,13.3018,4.60078,2470.46,2022-7-08T11:42:58Z
2022-07-08T09:44:16Z,42.805,6.029,13.3022,4.60077,2470.437,2022-7-08T11:46:01Z
2022-07-08T09:47:19Z,42.805,6.029,13.3019,4.60075,2470.437,2022-7-08T11:49:04Z
2022-07-08T09:50:22Z,42.805,6.029,13.3015,4.60081,2470.45,2022-7-08T11:52:08Z
2022-07-08T09:53:25Z,42.805,6.029,13.3022,4.60087,2470.483,2022-7-08T11:55:11Z
2022-07-08T09:56:28Z,42.805,6.029,13.3020,4.60058,2470.427,2022-7-08T11:58:14Z
2022-07-08T09:59:31Z,42.805,6.029,13.3013,4.60046,2470.474,2022-7-08T12:01:17Z
2022-07-08T10:02:34Z,42.805,6.029,13.3019,4.60077,2470.483,2022-7-08T12:04:20Z
2022-07-08T10:05:38Z,42.805,6.029,13.3031,4.60074,2470.474,2022-7-08T12:07:23Z
2022-07-08T10:08:41Z,42.805,6.029,13.3018,4.60076,2470.437,2022-7-08T12:10:26Z
2022-07-08T10:11:44Z,42.805,6.029,13.3022,4.60084,2470.437,2022-7-08T12:13:29Z
2022-07-08T10:14:47Z,42.805,6.029,13.3026,4.60065,2470.413,2022-7-08T12:16:33Z
2022-07-08T10:17:50Z,42.805,6.029,13.3018,4.60067,2470.46,2022-7-08T12:19:36Z
2022-07-08T10:20:53Z,42.805,6.029,13.3022,4.60087,2470.497,2022-7-08T12:22:39Z
2022-07-08T10:23:56Z,42.805,6.029,13.3015,4.60071,2470.46,2022-7-08T12:25:42Z
2022-07-08T10:26:59Z,42.805,6.029,13.3012,4.60060,2470.437,2022-7-08T12:28:45Z
2022-07-08T10:30:03Z,42.805,6.029,13.3015,4.60067,2470.46,2022-7-08T12:31:48Z
2022-07-08T10:33:06Z,42.805,6.029,13.3025,4.60101,2470.45,2022-7-08T12:34:51Z
2022-07-08T10:36:09Z,42.805,6.029,13.3020,4.60081,2470.474,2022-7-08T12:37:54Z
2022-07-08T10:39:12Z,42.805,6.029,13.3034,4.60102,2470.46,2022-7-08T12:40:58Z
2022-07-08T10:42:15Z,42.805,6.029,13.3036,4.60101,2470.474,2022-7-08T12:44:01Z
2022-07-08T10:45:18Z,42.805,6.029,13.3031,4.60092,2470.437,2022-7-08T12:47:04Z
2022-07-08T10:48:21Z,42.805,6.029,13.3021,4.60066,2470.474,2022-7-08T12:50:07Z
2022-07-08T10:51:24Z,42.805,6.029,13.3015,4.60079,2470.497,2022-7-08T12:53:10Z
2022-07-08T10:54:28Z,42.805,6.029,13.3037,4.60105,2470.46,2022-7-08T12:56:13Z
2022-07-08T10:57:31Z,42.805,6.029,13.3019,4.60091,2470.474,2022-7-08T12:59:16Z
2022-07-08T11:00:34Z,42.805,6.029,13.3028,4.60080,2470.52,2022-7-08T13:02:19Z
2022-07-08T11:03:37Z,42.805,6.029,13.3027,4.60090,2470.483,2022-7-08T13:05:23Z
2022-07-08T11:06:40Z,42.805,6.029,13.3026,4.60071,2470.46,2022-7-08T13:08:26Z
2022-07-08T11:09:43Z,42.805,6.029,13.3029,4.60071,2470.507,2022-7-08T13:11:29Z
2022-07-08T11:12:46Z,42.805,6.029,13.3021,4.60089,2470.46,2022-7-08T13:14:32Z
2022-07-08T11:15:49Z,42.805,6.029,13.3029,4.60087,2470.488,2022-7-08T13:17:35Z
2022-07-08T11:18:53Z,42.805,6.029,13.3016,4.60075,2470.483,2022-7-08T13:20:38Z
2022-07-08T11:21:56Z,42.805,6.029,13.3021,4.60092,2470.483,2022-7-08T13:23:41Z
2022-07-08T11:24:59Z,42.805,6.029,13.3023,4.60097,2470.483,2022-7-08T13:26:44Z
2022-07-08T11:28:02Z,42.805,6.029,13.3015,4.60062,2470.497,2022-7-08T13:29:47Z
2022-07-08T11:31:05Z,42.805,6.029,13.3021,4.60070,2470.46,2022-7-08T13:32:51Z
2022-07-08T11:34:08Z,42.805,6.029,13.3025,4.60081,2470.483,2022-7-08T13:35:54Z
2022-07-08T11:37:11Z,42.805,6.029,13.3025,4.60079,2470.52,2022-7-08T13:38:57Z
2022-07-08T11:40:14Z,42.805,6.029,13.3024,4.60088,2470.507,2022-7-08T13:42:00Z
2022-07-08T11:43:17Z,42.805,6.029,13.3030,4.60081,2470.52,2022-7-08T13:45:03Z
2022-07-08T11:46:21Z,42.805,6.029,13.3030,4.60081,2470.497,2022-7-08T13:48:06Z
2022-07-08T11:49:24Z,42.805,6.029,13.3025,4.60093,2470.483,2022-7-08T13:51:09Z
2022-07-08T11:52:27Z,42.805,6.029,13.3021,4.60084,2470.497,2022-7-08T13:54:12Z
2022-07-08T11:55:30Z,42.805,6.029,13.3019,4.60069,2470.483,2022-7-08T13:57:16Z
2022-07-08T11:58:33Z,42.805,6.029,13.3019,4.60086,2470.52,2022-7-08T14:00:19Z
2022-07-08T12:01:36Z,42.805,6.029,13.3024,4.60079,2470.507,2022-7-08T14:03:22Z
2022-07-08T12:04:39Z,42.805,6.029,13.3019,4.60072,2470.53,2022-7-08T14:06:25Z
2022-07-08T12:07:42Z,42.805,6.029,13.3024,4.60087,2470.52,2022-7-08T14:09:28Z
2022-07-08T12:10:46Z,42.805,6.029,13.3027,4.60075,2470.507,2022-7-08T14:12:31Z
2022-07-08T12:13:49Z,42.805,6.029,13.3022,4.60093,2470.53,2022-7-08T14:15:34Z
2022-07-08T12:16:52Z,42.805,6.029,13.3022,4.60079,2470.507,2022-7-08T14:18:37Z
2022-07-08T12:19:55Z,42.805,6.029,13.3013,4.60074,2470.507,2022-7-08T14:21:41Z
2022-07-08T12:22:58Z,42.805,6.029,13.3037,4.60083,2470.507,2022-7-08T14:24:44Z
2022-07-08T12:26:01Z,42.805,6.029,13.3024,4.60082,2470.507,2022-7-08T14:27:47Z
2022-07-08T12:29:04Z,42.805,6.029,13.3033,4.60076,2470.544,2022-7-08T14:30:50Z
2022-07-08T12:32:07Z,42.805,6.029,13.3022,4.60086,2470.53,2022-7-08T14:33:53Z
2022-07-08T12:35:11Z,42.805,6.029,13.3021,4.60087,2470.567,2022-7-08T14:36:56Z
2022-07-08T12:38:14Z,42.805,6.029,13.3017,4.60081,2470.483,2022-7-08T14:39:59Z
2022-07-08T12:41:17Z,42.805,6.029,13.3019,4.60079,2470.53,2022-7-08T14:43:02Z
2022-07-08T12:44:20Z,42.805,6.029,13.3031,4.60077,2470.507,2022-7-08T14:46:06Z
2022-07-08T12:47:23Z,42.805,6.029,13.3021,4.60067,2470.483,2022-7-08T14:49:09Z
2022-07-08T12:50:26Z,42.805,6.029,13.3021,4.60072,2470.52,2022-7-08T14:52:12Z
2022-07-08T12:53:29Z,42.805,6.029,13.3030,4.60079,2470.553,2022-7-08T14:55:15Z
2022-07-08T12:56:32Z,42.805,6.029,13.3027,4.60089,2470.483,2022-7-08T14:58:18Z
2022-07-08T12:59:36Z,42.805,6.029,13.3019,4.60074,2470.507,2022-7-08T15:01:21Z
2022-07-08T13:02:39Z,42.805,6.029,13.3014,4.60074,2470.53,2022-7-08T15:04:24Z
2022-07-08T13:05:42Z,42.805,6.029,13.3012,4.60080,2470.567,2022-7-08T15:07:27Z
2022-07-08T13:08:45Z,42.805,6.029,13.3022,4.60074,2470.53,2022-7-08T15:10:31Z
2022-07-08T13:11:48Z,42.805,6.029,13.3020,4.60059,2470.507,2022-7-08T15:13:34Z
2022-07-08T13:14:51Z,42.805,6.029,13.3026,4.60073,2470.507,2022-7-08T15:16:37Z
2022-07-08T13:17:54Z,42.805,6.029,13.3027,4.60072,2470.53,2022-7-08T15:19:40Z
2022-07-08T13:20:57Z,42.805,6.029,13.3021,4.60082,2470.544,2022-7-08T15:22:43Z
2022-07-08T13:24:01Z,42.805,6.029,13.3013,4.60072,2470.507,2022-7-08T15:25:46Z
2022-07-08T13:27:04Z,42.805,6.029,13.3037,4.60069,2470.52,2022-7-08T15:28:49Z
2022-07-08T13:30:07Z,42.805,6.029,13.3014,4.60084,2470.53,2022-7-08T15:31:52Z
2022-07-08T13:33:10Z,42.805,6.029,13.3012,4.60067,2470.544,2022-7-08T15:34:56Z
2022-07-08T13:36:13Z,42.805,6.029,13.3022,4.60064,2470.553,2022-7-08T15:37:59Z
2022-07-08T13:39:16Z,42.805,6.029,13.3017,4.60085,2470.53,2022-7-08T15:41:02Z
2022-07-08T13:42:19Z,42.805,6.029,13.3028,4.60081,2470.53,2022-7-08T15:44:05Z
2022-07-08T13:45:22Z,42.805,6.029,13.3027,4.60108,2470.553,2022-7-08T15:47:08Z
2022-07-08T13:48:25Z,42.805,6.029,13.3024,4.60074,2470.52,2022-7-08T15:50:11Z
2022-07-08T13:51:29Z,42.805,6.029,13.3018,4.60076,2470.53,2022-7-08T15:53:14Z
2022-07-08T13:54:32Z,42.805,6.029,13.3012,4.60076,2470.53,2022-7-08T15:56:17Z
2022-07-08T13:57:35Z,42.805,6.029,13.3026,4.60065,2470.52,2022-7-08T15:59:20Z
2022-07-08T14:00:38Z,42.805,6.029,13.3020,4.60081,2470.52,2022-7-08T16:02:24Z
2022-07-08T14:03:41Z,42.805,6.029,13.3029,4.60084,2470.52,2022-7-08T16:05:27Z
2022-07-08T14:06:44Z,42.805,6.029,13.3021,4.60078,2470.53,2022-7-08T16:08:30Z
2022-07-08T14:09:47Z,42.805,6.029,13.3026,4.60079,2470.544,2022-7-08T16:11:33Z
2022-07-08T14:12:50Z,42.805,6.029,13.3015,4.60087,2470.553,2022-7-08T16:14:36Z
2022-07-08T14:15:54Z,42.805,6.029,13.3026,4.60084,2470.507,2022-7-08T16:17:39Z
2022-07-08T14:18:57Z,42.805,6.029,13.3024,4.60063,2470.544,2022-7-08T16:20:42Z
2022-07-08T14:22:00Z,42.805,6.029,13.3020,4.60062,2470.507,2022-7-08T16:23:45Z
2022-07-08T14:25:03Z,42.805,6.029,13.3011,4.60058,2470.53,2022-7-08T16:26:49Z
2022-07-08T14:28:06Z,42.805,6.029,13.3020,4.60067,2470.553,2022-7-08T16:29:52Z
2022-07-08T14:31:09Z,42.805,6.029,13.3023,4.60078,2470.567,2022-7-08T16:32:55Z
2022-07-08T14:34:12Z,42.805,6.029,13.3027,4.60074,2470.544,2022-7-08T16:35:58Z
2022-07-08T14:37:15Z,42.805,6.029,13.3030,4.60086,2470.507,2022-7-08T16:39:01Z
2022-07-08T14:40:19Z,42.805,6.029,13.3019,4.60059,2470.577,2022-7-08T16:42:04Z
2022-07-08T14:43:22Z,42.805,6.029,13.3030,4.60080,2470.53,2022-7-08T16:45:07Z
2022-07-08T14:46:25Z,42.805,6.029,13.3009,4.60065,2470.553,2022-7-08T16:48:10Z
2022-07-08T14:49:28Z,42.805,6.029,13.3015,4.60080,2470.507,2022-7-08T16:51:14Z
2022-07-08T14:52:31Z,42.805,6.029,13.3029,4.60079,2470.544,2022-7-08T16:54:17Z
2022-07-08T14:55:34Z,42.805,6.029,13.3021,4.60074,2470.544,2022-7-08T16:57:20Z
2022-07-08T14:58:37Z,42.805,6.029,13.3014,4.60064,2470.53,2022-7-08T17:00:23Z
2022-07-08T15:01:40Z,42.805,6.029,13.3022,4.60066,2470.544,2022-7-08T17:03:26Z
2022-07-08T15:04:43Z,42.805,6.029,13.3015,4.60081,2470.507,2022-7-08T17:06:29Z
2022-07-08T15:07:47Z,42.805,6.029,13.3022,4.60087,2470.507,2022-7-08T17:09:32Z
2022-07-08T15:10:50Z,42.805,6.029,13.3018,4.60087,2470.493,2022-7-08T17:12:35Z
2022-07-08T15:13:53Z,42.805,6.029,13.3019,4.60085,2470.507,2022-7-08T17:15:38Z